THOR ABLESTAR DEB, 543

Orbit data source: Space-Track

THOR ABLESTAR DEB, 543 is space debris in LEO originally from a launch on Thu, 29 Jun 1961 UTC launched from the Air Force Eastern Test Range (AFETR). Debris objects in space refer to the collection of defunct objects orbiting the Earth. Examples of debris include non-operational satellites, rocket bodies, and fragments generated from explosions, collisions, or faulty payload assembly.

Loading next visibility...
THOR ABLESTAR DEB details
Identifier
543, 1961-015GC
Orbit
LEO
Last TLE update20 hours ago
Origin
Flag of USUSAF SSD (US)
ManufacturerUnknown
MissionSpacecraft
Bus & MotorUnknown
MassUnknown
Launch date (UTC)
1961-06-29 (64 years ago)
Launch vehicleUnknown
Launch site
Air Force Eastern Test Range (AFETR)
Object type
Payload
Rocket body
Debris
Shape & HBRUnknown
Radar Cross SectionSmall (<0.1 m²)

Expand to show TLE details & history

TLE from 20 hours ago
0 THOR ABLESTAR DEB
1 00543U 61015GC  25013.56674326  .00000179  00000-0  28452-3 0  9996
2 00543  67.0317  75.8439 0071618 217.6518 293.4520 13.68960355165561
Epoch: 2025-01-13T13:36Z
Definitive object data (Epoch: 2025-01-13T13:36:06.617Z)
Latitude27.15006°
Longitude-73.95665°
Altitude985.071 km
Speed7.372 km/s
True Right ascension16h 13m 25s
True Declination27° 00' 54"
Sunlit
Object was in daylight at TLE epoch
Visualization TLE readout
Latitude-33.80138°
Longitude100.18095°
Altitude1,029.446 km
Speed7.329 km/s
Apparent Right ascension01h 27m 35s
Apparent Declination-44° 23' 30"
Sunlit
Object is in daylight
Visualization observer readout
Local Sidereal Time10:19:21
Azimuth246.802° WSW
Elevation-55.312°
Doppler factor1
Orbital elements
Apogee altitude1,054.543 km
Perigee altitude948.837 km
Semi-major axis7,379.827 km
Eccentricity0.0071618
Inclination67.0317°
RAAN75.8439°
Arg. of periapsis217.6518°
True anomaly292.69644°
Mean anomaly293.452°
Eccentric anomaly293.07449°
Mean motion3.42353 °/min
BSTAR0.00028452
Orbital period105.15 mins
Loading maneuver chart data...

THOR ABLESTAR DEB Visibility forecast

Observer location: undefined°, undefined

Span
Click to sort rows by Start time (UTC) header in descending order
Start Az.
Max El. time (UTC)
Max El. Az.
Max El.
End time (UTC)
End Az.
10 mins2025-01-14 13:58:23.374Z348.658° N2025-01-14 14:03:23.374Z57.432° ENE33.691°2025-01-14 14:08:23.374Z119.882° SE
9 mins2025-01-14 15:47:23.374Z303.681° NW2025-01-14 15:51:23.374Z248.245° W29.516°2025-01-14 15:56:23.374Z191.027° SSW
11 mins2025-01-15 05:19:23.374Z201.73° SSW2025-01-15 05:24:23.374Z119.8° SE44.694°2025-01-15 05:30:23.374Z30.895° NE
9 mins2025-01-15 07:09:23.374Z274.785° WNW2025-01-15 07:13:23.374Z316.92° NNW20.691°2025-01-15 07:18:23.374Z5.657° NNE
|